Home > Weather > Fribourg > Past weeks

Flag for Switzerland Weather for the Past 2 Weeks in Fribourg, Fribourg, Switzerland

Now
41 °F

Light rain. Passing clouds.


Feels Like: 39 °F
Forecast: 42 / 54 °F
Wind: 3 mph from Southeast

Location: Payerne

Current Time: May 1, 2016 at 10:24:22 AM

Latest Report: May 1, 2016 at 8:50 AM


Visibility: N/A

Pressure: 30.04 "Hg (27.92 "Hg at 596m altitude)

Humidity: 93%

Dew Point: 39 °F

Location of FribourgLocation

Historic Weather in Fribourg — Graph

°F

Fribourg Temperature Yesterday

Maximum temperature yesterday: 59 °F (at 1:50 PM)
Minimum temperature yesterday: 37 °F (at 2:50 AM)
Average temperature yesterday: 46 °F

High & Low Weather Summary for the Past Weeks

 TemperatureHumidityPressure
High68 °F (Apr 22, 3:50 PM)100% (Apr 16, 10:50 PM)30.30 "Hg (Apr 16, 10:50 PM)
Low30 °F (Apr 28, 4:50 AM)38% (Apr 28, 2:50 PM)29.62 "Hg (Apr 16, 7:50 PM)
Average47 °F78%29.99 "Hg
* Reported Apr 16 8:50 AM — May 1 8:50 AM, Fribourg, Weather by CustomWeather, © 2016

Note: Actual official high and low records may vary slightly from our data, if they occured in-between our weather recording intervals... More about our weather records

Advertising

Fribourg Weather History for the Previous 24 Hours

Scroll right to see more
 ConditionsComfort  
Time TempWeatherWind HumidityBarometerVisibility
8:50 AM
Sun, May 1
41 °FLight rain. Passing clouds.3 mph93%30.04 "HgN/A
7:50 AM41 °FLight rain. Passing clouds.5 mph93%30.01 "HgN/A
6:50 AM39 °FLight rain. Passing clouds.7 mph100%30.01 "HgN/A
5:50 AM39 °FLight rain. Passing clouds.8 mph100%29.98 "HgN/A
4:50 AM41 °FLight rain. Passing clouds.8 mph93%29.98 "HgN/A
3:50 AM41 °FLight rain. Passing clouds.8 mph93%29.98 "HgN/A
2:50 AM41 °FLight rain. Passing clouds.9 mph100%29.98 "HgN/A
1:50 AM41 °FLight rain. Passing clouds.8 mph100%30.01 "HgN/A
12:50 AM43 °FLight rain. Passing clouds.7 mph100%30.01 "HgN/A
11:50 PM
Sat, Apr 30
43 °FLight rain. Passing clouds.6 mph100%30.01 "HgN/A
10:50 PM43 °FLight rain. Passing clouds.7 mph100%30.01 "HgN/A
9:50 PM45 °FLight rain. Passing clouds.6 mph93%30.01 "HgN/A
8:50 PM45 °FLight rain. Passing clouds.8 mph93%30.01 "HgN/A
7:50 PM46 °FLight rain. Partly sunny.6 mph100%29.98 "HgN/A
6:50 PM48 °FLight rain. Partly sunny.7 mph87%29.98 "HgN/A
5:50 PM48 °FLight rain. Passing clouds.6 mph87%29.98 "HgN/A
4:50 PM48 °FLight rain. Scattered clouds.8 mph87%29.98 "HgN/A
3:50 PM50 °FLight rain. Partly sunny.16 mph82%29.95 "HgN/A
2:50 PM57 °FRefreshingly cool.5 mph59%29.92 "HgN/A
1:50 PM59 °FPassing clouds.No wind55%29.92 "HgN/A
12:50 PM57 °FRefreshingly cool.2 mph48%29.95 "HgN/A
11:50 AM55 °FRefreshingly cool.No wind59%29.98 "HgN/A
10:50 AM50 °FCool.2 mph71%29.98 "HgN/A
Weather by CustomWeather, © 2016

See weather overviewHow to use our weather pages